[TLELIST] Archives

 

Current TLEs

January 24th 2008 PDT

HST 1 20580U 90037B 08022.80035702 .00000349 00000-0 14202-4 0 553 2 20580 028.4678 197.9660 0003571 269.1878 090.8302 15.00329856772970 ISS (ZARYA) 1 25544U 98067A 08023.41541556 .00019252 00000-0 11770-3 0 7697 2 25544 051.6408 048.0648 0005308 319.3908 181.7397 15.77378029525529 CXO 1 25867U 99040B 08022.12500000 .00000094 00000-0 10000-3 0 1595 2 25867 063.0424 084.2513 6573798 280.7370 356.7099 00.37798490 3070 ____________________________________________________________________ These 2-Line ...Continue Reading

Current TLEs

January 23rd 2008 PDT

HST 1 20580U 90037B 08020.87124125 +.00000365 +00000-0 +15468-4 0 00649 2 20580 028.4679 210.5455 0003637 248.2181 111.8021 15.00329199772683 ISS (ZARYA) 1 25544U 98067A 08022.20136510 .00020651 00000-0 12618-3 0 7634 2 25544 051.6401 054.3302 0005382 315.0141 127.5080 15.77334577525339 CXO 1 25867U 99040B 08022.12500000 .00000094 00000-0 10000-3 0 1595 2 25867 063.0424 084.2513 6573798 280.7370 356.7099 00.37798490 3070 ____________________________________________________________________ These 2-Line ...Continue Reading

Current TLEs

January 22nd 2008 PDT

HST 1 20580U 90037B 08020.93776245 .00000371 00000-0 15875-4 0 528 2 20580 028.4679 210.1113 0003619 248.7881 111.2324 15.00329271772694 ISS (ZARYA) 1 25544U 98067A 08021.11874253 .00022240 00000-0 13579-3 0 7538 2 25544 051.6398 059.9159 0005462 308.8944 102.0111 15.77295377525163 CXO 1 25867U 99040B 08022.12500000 .00000094 00000-0 10000-3 0 1595 2 25867 063.0424 084.2513 6573798 280.7370 356.7099 00.37798490 3070 ____________________________________________________________________ These 2-Line ...Continue Reading

Current TLEs

January 21st 2008 PDT

HST 1 20580U 90037B 08019.87342270 .00000369 00000-0 15706-4 0 515 2 20580 028.4681 217.0551 0003763 237.4358 122.5866 15.00328889772536 ISS (ZARYA) 1 25544U 98067A 08020.38179398 .00022347 00000-0 13662-3 0 7502 2 25544 051.6386 063.7180 0005453 305.6298 237.9041 15.77262132525044 CXO 1 25867U 99040B 08019.50000000 .00000121 00000-0 10000-3 0 1588 2 25867 063.0326 084.3052 6569186 280.8193 359.2675 00.37797552 3065 ____________________________________________________________________ These 2-Line ...Continue Reading

Current TLEs

January 20th 2008 PDT

HST 1 20580U 90037B 08017.87778602 +.00000353 +00000-0 +14527-4 0 00518 2 20580 028.4682 230.0700 0003876 217.7591 142.2725 15.00327905772231 ISS (ZARYA) 1 25544U 98067A 08019.42093253 .00022891 00000-0 14010-3 0 7434 2 25544 051.6384 068.6760 0005381 300.7814 183.2344 15.77220116524897 CXO 1 25867U 99040B 08019.50000000 .00000121 00000-0 10000-3 0 1588 2 25867 063.0326 084.3052 6569186 280.8193 359.2675 00.37797552 3065 ____________________________________________________________________ These 2-Line ...Continue Reading

Current TLEs

January 19th 2008 PDT

HST 1 20580U 90037B 08017.81126465 .00000347 00000-0 13998-4 0 509 2 20580 028.4683 230.5038 0003895 217.1770 142.8542 15.00327835772229 ISS (ZARYA) 1 25544U 98067A 08018.41932870 .00023621 00000-0 14472-3 0 7376 2 25544 051.6387 073.8448 0005399 299.3116 253.8479 15.77175771524730 CXO 1 25867U 99040B 08016.83333333 .00000249 00000-0 10000-3 0 1579 2 25867 063.0117 084.3971 6568528 280.8527 356.2197 00.37806487 3056 ____________________________________________________________________ These 2-Line ...Continue Reading

Current TLEs

January 18th 2008 PDT

HST 1 20580U 90037B 08015.88214728 +.00000392 +00000-0 +17528-4 0 00541 2 20580 028.4687 243.0833 0004143 197.1248 162.9198 15.00327567771938 ISS (ZARYA) 1 25544U 98067A 08017.45672502 .00025119 00000-0 15389-3 0 7307 2 25544 051.6380 078.8096 0005425 292.1604 191.8945 15.77134864524580 CXO 1 25867U 99040B 08016.83333333 .00000249 00000-0 10000-3 0 1579 2 25867 063.0117 084.3971 6568528 280.8527 356.2197 00.37806487 3056 ____________________________________________________________________ These 2-Line ...Continue Reading

Current TLEs

January 17th 2008 PDT

HST 1 20580U 90037B 08016.01518974 .00000395 00000-0 17746-4 0 496 2 20580 028.4687 242.2161 0004144 198.5702 161.4733 15.00327652771950 ISS (ZARYA) 1 25544U 98067A 08016.37520006 .00025462 00000-0 15630-3 0 7241 2 25544 051.6381 084.3900 0005406 286.7248 172.7346 15.77081241524414 CXO 1 25867U 99040B 08016.83333333 .00000249 00000-0 10000-3 0 1579 2 25867 063.0117 084.3971 6568528 280.8527 356.2197 00.37806487 3056 ____________________________________________________________________ These 2-Line ...Continue Reading

Current TLEs

January 16th 2008 PDT

HST 1 20580U 90037B 08014.88432846 .00000398 00000-0 17995-4 0 480 2 20580 028.4687 249.5891 0004170 186.9101 173.1427 15.00327158771785 ISS (ZARYA) 1 25544U 98067A 08015.35233512 .00025329 00000-0 15588-3 0 7177 2 25544 051.6385 089.6666 0005501 282.1160 126.2013 15.77027274524257 CXO 1 25867U 99040B 08014.20833333 .00000360 00000-0 10000-3 0 1566 2 25867 062.9914 084.4909 6565647 280.8441 358.9450 00.37808397 3047 ____________________________________________________________________ These 2-Line ...Continue Reading

Current TLEs

January 15th 2008 PDT

HST 1 20580U 90037B 08012.95521148 +.00000437 +00000-0 +21061-4 0 00607 2 20580 028.4692 262.1677 0004189 166.7721 193.2980 15.00326552771490 ISS (ZARYA) 1 25544U 98067A 08013.54313657 .00023129 00000-0 14332-3 0 7054 2 25544 051.6383 099.0016 0005560 276.7620 293.5502 15.76930700523968 CXO 1 25867U 99040B 08014.20833333 .00000360 00000-0 10000-3 0 1566 2 25867 062.9914 084.4909 6565647 280.8441 358.9450 00.37808397 3047 ____________________________________________________________________ These 2-Line ...Continue Reading
  • This mailing list is a public mailing list - anyone may join or leave, at any time.
  • This mailing list is announce-only.

International Space Station (ISS) / Hubble Space Telescope (HST) / Chandra X-Ray Observatory Orbital Data via EMAIL

Privacy Policy:

Private list